GFSGL_sfc_dewp_096.txt.gz
Dewpoint
40 41 41 41 41 42 43 45 45 46 48 48 51 54 56 57 57 58 59 61 62 63 63 62 63 63 63 63 62 62 61 61 59 57 62 64 65 66 66 68 66 67 66
41 41 40 41 41 41 41 42 44 45 46 47 48 50 52 55 57 58 57 58 60 60 61 62 62 62 63 62 62 61 62 63 61 59 63 63 64 65 66 66 67 66 66
39 38 39 39 39 39 39 42 43 45 44 44 46 48 49 53 55 56 56 56 57 60 60 61 61 61 61 62 62 62 63 64 63 62 62 62 63 63 63 64 65 66 65
38 38 38 39 39 39 39 39 40 42 42 43 44 47 48 50 53 55 55 56 57 57 59 61 60 61 60 61 61 61 61 61 61 61 61 61 61 63 63 63 63 64 65
38 38 39 39 39 40 39 39 40 41 43 44 44 45 45 46 47 52 55 54 55 57 58 58 60 61 60 60 61 62 61 60 59 59 59 60 60 60 61 62 63 62 63
38 38 39 40 40 40 40 41 40 40 41 41 42 43 44 43 43 46 51 53 55 56 57 57 59 59 59 57 57 57 61 60 58 58 58 58 60 61 61 61 61 60 59
38 39 39 40 40 40 40 40 40 41 42 42 44 44 45 45 44 44 46 50 54 56 57 57 58 59 59 60 55 55 55 54 56 59 59 59 59 59 59 60 60 59 60
38 39 39 39 40 40 40 41 41 41 42 42 43 44 44 44 44 44 45 51 54 55 56 57 59 59 59 59 60 59 59 58 57 60 61 61 60 59 61 61 60 60 60
38 38 39 39 40 40 41 42 43 43 42 42 43 43 45 45 44 44 47 52 54 54 57 58 59 58 53 50 59 58 59 59 54 52 53 51 49 50 56 59 59 60 59
38 38 39 39 40 42 43 44 44 44 43 43 42 43 45 46 46 45 46 51 54 54 56 58 52 57 48 47 58 58 57 56 54 53 52 49 51 53 52 60 61 60 59
38 38 39 40 42 43 43 45 44 44 43 42 43 44 45 46 48 45 45 53 54 54 55 56 58 48 45 46 52 57 57 54 52 54 54 54 54 56 58 58 62 61 59
37 38 39 41 43 44 43 43 44 43 42 42 43 44 46 47 47 46 43 44 49 54 54 56 55 44 44 46 51 47 47 51 55 55 54 55 55 55 55 55 59 60 63
37 38 39 41 44 43 43 42 42 43 42 42 43 45 46 50 52 45 44 43 43 50 56 52 45 44 44 45 44 44 48 55 54 53 52 52 53 55 56 57 59 60 62
37 38 40 41 44 43 43 43 42 42 43 43 44 45 46 50 53 53 52 49 44 50 48 47 46 45 46 48 48 48 50 50 48 48 48 52 55 56 59 61 60 60 59
37 38 39 41 44 44 43 43 43 44 43 42 44 45 45 48 52 47 47 52 55 50 49 50 49 46 47 47 46 47 47 47 47 49 52 55 58 58 59 61 60 60 59
36 37 39 41 44 44 44 43 40 39 40 39 39 39 44 44 41 39 40 43 42 45 50 50 46 45 45 45 44 45 47 48 50 52 53 55 55 56 59 60 60 59 58
36 38 39 40 43 44 44 44 43 43 41 39 39 39 39 43 40 40 40 42 42 47 51 48 46 46 45 45 46 47 47 49 50 50 50 52 53 55 58 59 59 58 58
35 37 37 39 43 45 44 45 45 44 44 44 42 40 39 40 40 39 41 45 50 49 50 46 46 45 45 45 47 49 49 49 50 50 51 53 54 56 57 57 59 59 58
33 34 35 37 39 40 44 44 44 44 44 44 44 44 44 42 42 43 45 51 49 48 47 46 45 46 46 47 49 47 46 47 48 49 51 53 55 57 57 57 58 51 53
32 33 33 34 36 36 38 41 43 43 44 43 43 42 43 48 50 50 51 52 51 50 48 46 46 46 46 46 47 46 45 47 47 48 51 52 54 56 56 57 57 56 57
29 31 32 32 32 34 34 36 38 39 40 43 43 42 35 44 46 48 50 50 50 50 50 49 49 48 47 47 47 45 46 46 47 50 51 52 55 56 56 57 57 58 57
28 28 30 29 30 30 32 33 33 34 36 38 40 43 37 43 44 46 47 49 49 50 50 50 49 49 48 47 46 46 46 46 47 49 52 53 54 55 56 57 57 58 57
25 25 26 28 28 28 29 30 30 30 32 34 35 37 39 41 43 44 45 47 48 49 48 49 50 49 49 50 49 47 46 46 47 50 53 53 53 53 53 53 56 57 57
24 24 24 24 26 26 27 27 28 28 30 31 32 33 34 36 38 39 43 45 46 48 48 47 48 48 49 49 49 49 49 50 50 50 52 53 52 49 52 52 53 56 57
23 24 24 23 23 24 24 26 26 26 27 28 29 30 31 32 34 35 37 39 43 46 46 47 48 48 48 47 47 48 44 37 48 44 53 52 50 49 50 50 51 55 56
23 23 23 24 23 22 22 23 23 25 26 26 27 29 30 30 31 32 34 34 35 39 45 46 47 47 48 48 47 42 36 35 41 37 49 50 50 51 51 52 53 54 56

GFSGL_sfc_dewp_102.txt.gz
Dewpoint
47 48 48 48 49 49 49 49 49 50 50 48 48 49 49 50 52 53 54 53 56 60 62 63 63 64 56 52 54 52 52 53 53 55 56 61 67 66 65 67 66 67 65
45 46 47 48 48 48 48 48 48 48 48 47 47 47 46 47 49 49 49 51 52 54 58 60 61 59 63 64 56 59 55 58 55 62 61 59 66 67 67 68 66 63 65
44 44 46 46 47 47 47 47 46 46 46 46 45 45 45 46 46 48 47 48 50 53 55 58 60 61 61 58 60 57 54 57 56 61 58 59 61 64 64 67 66 67 66
43 44 44 46 46 46 46 46 45 44 44 43 44 44 43 43 43 43 44 46 49 50 53 56 57 60 61 61 61 61 59 56 55 55 61 58 61 65 64 62 65 66 67
43 43 44 45 45 45 44 44 44 45 44 44 44 44 44 44 42 44 44 46 47 47 48 49 54 56 56 58 60 60 59 58 53 52 60 59 61 62 62 63 63 68 68
43 42 43 43 43 44 44 44 45 45 44 44 44 44 44 43 42 43 44 43 44 45 45 46 48 52 53 53 53 54 56 60 59 53 51 56 61 61 64 64 65 63 63
42 41 42 43 42 43 43 43 44 45 45 45 45 45 46 45 43 43 44 44 44 46 46 45 46 45 49 53 53 52 52 51 53 59 58 58 60 64 66 65 64 63 63
41 41 41 42 42 43 44 44 45 44 45 47 46 46 45 44 43 42 43 44 44 45 45 46 46 47 49 49 55 56 55 57 59 57 61 61 65 66 65 63 63 63 66
40 41 41 41 42 44 44 44 45 46 45 46 46 46 46 46 43 42 43 45 44 46 46 48 48 48 45 44 50 53 55 55 52 52 53 54 52 51 60 64 64 64 62
39 39 40 41 43 43 44 44 46 46 46 46 45 45 44 45 43 42 43 45 45 46 47 48 47 48 44 44 50 54 52 52 53 57 61 57 54 57 52 64 64 64 61
38 39 40 43 44 44 45 45 46 46 47 45 45 44 46 46 46 43 42 47 47 47 48 50 53 45 43 43 44 52 53 54 56 60 61 61 61 62 61 62 66 65 62
37 38 41 43 43 42 45 45 46 47 47 44 45 45 45 49 47 46 44 43 46 48 50 51 54 46 42 42 46 47 46 49 60 61 59 59 59 61 62 63 66 67 64
37 38 41 42 42 43 44 45 46 45 45 45 44 44 46 46 48 44 43 43 44 45 49 49 46 44 42 45 43 44 44 54 57 58 58 57 59 62 64 65 66 65 62
36 38 40 40 41 42 43 44 47 44 46 44 44 45 46 48 48 51 52 53 49 50 50 49 48 47 48 51 50 47 53 57 58 58 58 59 59 59 61 63 61 61 60
35 37 38 37 39 41 44 45 46 47 47 46 44 44 44 44 45 44 43 46 46 46 44 51 50 50 50 52 53 54 57 57 56 57 58 58 58 58 58 60 60 61 59
33 34 35 37 37 39 42 42 42 41 41 40 39 41 44 42 41 39 39 39 38 40 52 51 52 53 53 54 54 55 56 55 56 56 57 57 56 56 57 57 58 57 58
32 33 32 35 35 35 39 40 40 42 41 41 39 40 39 39 41 39 39 41 41 47 51 48 50 49 49 50 50 53 54 56 57 56 55 55 54 55 56 58 58 59 58
31 31 31 32 33 32 35 37 38 39 40 41 41 39 39 39 40 42 43 46 53 51 49 43 47 49 49 48 46 48 52 54 53 48 52 52 55 55 57 57 59 59 58
31 30 30 29 30 32 32 33 34 35 36 37 39 38 38 39 41 43 45 55 53 50 46 45 46 47 53 53 51 52 52 54 53 53 52 54 54 57 59 59 60 53 55
29 32 31 28 28 28 29 31 31 32 34 35 35 36 36 40 41 42 47 50 52 49 46 46 48 49 44 45 48 49 51 53 54 54 53 53 54 57 59 60 61 59 60
26 27 30 29 30 29 28 29 30 29 31 32 32 33 31 38 38 39 40 42 46 49 54 46 45 45 44 44 44 44 45 47 50 53 53 54 54 50 55 59 61 60 60
25 24 25 26 26 27 31 29 29 28 28 27 28 30 31 34 36 36 37 38 40 44 48 50 50 47 47 45 44 45 46 46 47 48 52 53 53 52 51 51 53 59 58
25 25 23 24 25 27 26 26 29 29 28 27 27 27 28 30 32 34 35 36 37 39 43 48 49 49 51 51 49 46 45 46 48 50 51 52 52 51 51 51 52 52 54
23 24 24 24 24 24 25 24 25 26 28 28 30 26 26 28 29 31 34 35 36 37 38 41 45 46 50 51 51 49 50 50 49 49 49 50 50 49 49 50 50 52 54
25 25 25 25 24 24 23 24 24 24 24 25 27 28 28 27 26 27 30 32 34 35 36 38 40 42 44 50 49 49 41 35 46 39 48 49 48 49 46 45 46 48 51
25 27 26 26 25 24 25 24 24 24 24 24 26 27 29 28 28 27 27 28 30 34 34 35 36 39 41 41 42 36 35 35 40 35 48 49 48 47 45 45 46 42 44

GFSGL_sfc_dewp_105.txt.gz
Dewpoint
48 49 50 51 51 52 52 51 52 52 52 50 50 50 50 50 52 54 55 54 54 56 58 57 59 62 59 59 59 57 54 53 52 53 52 58 64 65 66 67 66 66 64
46 48 49 50 50 51 51 51 50 49 49 48 48 47 47 46 50 50 50 49 50 50 52 53 55 56 60 63 62 61 58 57 53 56 59 57 62 64 66 68 66 64 65
46 47 48 49 49 50 50 49 48 48 47 46 45 45 46 45 46 46 46 46 47 48 49 50 53 55 57 59 61 61 60 57 58 55 55 56 58 59 63 67 68 68 65
46 46 47 48 48 48 48 47 47 46 46 46 47 46 46 44 44 45 45 46 45 45 47 50 50 51 54 57 58 60 61 59 58 56 54 54 56 60 60 61 65 67 66
46 45 46 47 46 46 46 46 46 47 45 45 45 45 45 45 43 45 46 45 46 45 47 45 47 50 50 50 50 57 60 60 58 54 55 52 55 55 56 58 63 64 68
45 44 44 44 44 45 47 45 47 46 46 46 45 45 45 45 43 44 45 45 45 45 44 45 46 47 47 47 47 49 53 57 58 54 52 50 55 57 56 61 63 64 64
44 43 43 43 42 44 44 46 48 48 48 47 48 46 46 46 43 43 45 44 46 45 45 45 44 42 46 45 47 48 49 50 53 58 55 55 57 60 60 61 63 65 64
43 42 42 42 42 43 44 46 49 47 47 48 46 46 46 46 44 42 43 45 45 45 45 46 45 46 46 46 47 49 51 53 58 55 59 60 61 61 60 61 64 66 68
41 41 41 42 43 44 45 46 47 46 47 46 46 47 47 46 44 42 43 45 44 45 45 46 45 46 45 42 46 48 49 51 53 51 51 50 49 48 52 63 62 64 62
39 39 41 42 43 44 46 47 46 47 47 47 47 48 46 47 44 43 43 45 46 45 47 46 45 45 43 42 46 47 46 48 52 57 54 53 51 56 51 62 63 61 59
38 38 40 42 44 45 47 45 47 47 47 48 47 48 48 48 49 43 43 47 47 46 46 46 47 44 42 42 43 48 47 49 53 55 55 57 58 60 59 62 62 62 62
37 37 39 42 43 43 45 45 46 48 48 47 46 46 47 49 47 46 43 43 47 49 47 48 49 45 44 45 43 44 43 46 51 51 56 58 59 58 58 61 64 63 67
36 37 39 41 43 43 43 44 44 46 48 46 46 45 45 45 47 45 43 44 43 45 49 48 46 44 43 43 41 42 42 48 50 52 56 57 60 58 61 63 64 64 65
34 36 37 39 40 42 42 42 43 44 45 46 46 45 43 43 43 44 44 45 46 48 49 50 48 48 46 48 49 45 49 53 54 55 55 60 61 62 63 64 64 63 60
33 33 34 35 38 39 41 42 41 44 44 41 44 43 41 40 41 40 39 41 46 46 43 45 48 50 50 51 54 55 55 55 55 55 57 57 58 59 61 63 62 61 58
31 31 31 34 35 35 36 38 39 39 39 38 39 40 40 39 38 40 41 40 38 38 47 51 51 50 50 51 53 53 54 54 57 58 56 58 57 58 58 60 60 59 57
34 31 30 32 32 33 33 35 34 38 39 38 38 37 37 37 38 39 41 43 44 45 50 51 50 50 51 54 54 54 54 56 56 57 56 55 54 54 55 56 57 56 56
33 34 30 29 29 30 31 32 32 34 36 37 38 37 36 36 38 38 40 46 52 51 50 52 52 50 51 52 53 55 54 55 53 54 54 54 55 52 52 54 55 57 57
29 28 31 31 29 29 30 31 31 30 32 33 35 35 35 36 37 37 39 43 46 50 46 52 53 54 52 49 51 52 51 48 48 50 51 50 52 52 55 54 55 51 54
28 30 29 28 31 31 30 29 29 29 29 29 30 31 32 37 36 37 39 39 42 46 50 54 52 50 51 52 54 54 54 51 50 52 54 56 56 55 55 56 57 58 59
25 26 29 25 26 26 29 31 30 30 29 28 28 28 29 36 34 34 35 36 37 40 44 49 53 54 49 45 48 49 52 55 54 57 55 56 57 58 59 59 59 59 60
25 23 24 24 25 24 26 26 27 27 28 30 29 28 29 30 34 34 34 34 35 38 40 43 48 49 50 52 50 50 50 51 56 57 56 56 55 57 57 59 59 59 59
25 24 23 23 24 26 25 24 24 24 25 26 28 29 29 28 29 32 32 32 35 35 36 39 41 44 46 50 48 48 46 46 51 55 55 55 55 52 54 56 59 59 59
24 25 24 24 23 23 23 23 23 24 24 23 26 26 29 30 29 29 31 32 33 35 35 35 37 39 42 43 43 42 39 37 45 47 53 57 53 53 54 52 50 56 57
25 27 25 25 25 24 23 23 23 23 24 23 24 25 26 27 28 29 29 32 32 33 34 34 34 35 37 41 38 36 34 32 37 35 45 50 49 48 46 51 54 54 53
26 28 27 27 26 26 26 25 24 23 23 24 24 25 26 25 26 27 28 29 30 31 32 34 35 33 34 37 34 32 31 31 33 33 38 52 48 46 45 45 44 49 55

GFSGL_sfc_dewp_111.txt.gz
Dewpoint
47 48 50 50 51 51 51 51 51 50 49 48 48 47 47 46 46 46 46 46 46 46 46 46 47 47 46 46 48 48 51 52 53 55 56 58 57 59 62 64 66 65 65
46 48 49 50 50 50 50 49 50 48 47 47 46 46 47 47 46 46 46 46 45 44 43 44 44 44 44 43 42 43 45 50 53 52 56 56 56 57 57 61 64 65 65
46 46 48 49 49 49 48 48 49 46 46 46 47 47 47 47 46 46 46 46 45 45 45 45 45 45 43 43 43 43 46 47 49 51 51 55 57 58 57 60 60 63 64
46 46 47 48 49 47 47 47 45 46 47 46 46 46 46 46 46 46 45 46 45 45 47 47 46 45 45 44 44 44 43 44 47 49 48 50 53 57 60 58 57 61 62
45 46 46 47 46 46 45 45 47 47 48 48 48 48 47 47 46 45 45 45 44 44 44 44 44 46 48 47 44 43 43 42 41 42 43 44 46 51 55 59 57 56 59
43 43 45 45 45 45 46 47 46 46 47 48 46 46 47 46 45 46 46 45 44 44 44 45 45 47 46 47 47 47 46 42 42 42 42 42 43 46 50 54 57 57 56
42 42 42 42 42 44 45 45 45 45 46 46 45 46 45 45 44 44 46 46 46 45 44 44 44 44 46 44 45 46 46 46 46 43 42 43 44 46 50 53 56 56 55
39 39 39 39 40 42 43 44 44 45 45 44 46 46 46 46 45 44 45 46 45 46 46 45 45 45 45 45 44 43 43 43 44 46 47 46 46 46 50 55 55 58 58
37 37 37 38 40 41 42 43 44 45 45 46 46 47 47 48 45 44 43 44 44 45 45 47 47 46 45 42 44 44 43 44 45 45 45 44 45 45 49 52 54 56 54
35 35 36 38 39 41 42 43 44 44 45 46 46 47 48 47 45 42 42 42 42 43 43 44 45 47 44 42 44 44 43 44 44 46 46 47 44 46 46 50 54 54 55
35 35 36 38 39 41 41 42 43 44 45 46 45 44 44 45 42 41 40 40 41 41 41 43 43 43 42 41 42 46 46 45 46 47 48 49 49 49 48 54 55 56 53
34 34 35 35 36 38 39 41 43 43 43 43 43 42 43 41 41 40 39 38 40 40 42 45 45 42 42 42 43 43 41 43 47 47 47 48 48 49 52 55 56 57 57
33 32 33 33 35 37 38 38 38 39 38 38 39 41 39 39 39 39 38 38 39 42 46 47 44 43 42 42 42 41 41 45 45 45 45 47 48 50 55 56 57 57 58
34 32 32 32 34 35 36 37 34 35 35 36 38 35 35 36 36 36 37 38 40 45 48 51 49 46 43 43 45 46 47 47 47 46 47 49 51 54 55 54 54 56 56
35 33 32 31 32 33 34 36 33 33 35 33 35 33 34 35 36 37 37 38 41 43 48 51 51 51 51 50 49 49 50 49 48 48 48 50 52 53 53 54 54 55 55
34 33 32 31 31 31 32 33 35 34 35 34 36 34 34 35 36 36 35 37 38 39 45 47 48 48 50 52 51 52 53 50 49 49 49 50 51 52 53 54 56 55 55
33 31 33 32 31 31 31 31 31 33 34 34 33 33 33 35 35 35 34 36 36 39 41 43 45 45 47 49 52 52 52 54 53 50 50 51 52 52 51 55 55 55 56
30 33 29 33 32 31 31 32 32 32 30 30 31 32 33 34 34 34 33 35 35 36 38 40 41 43 44 45 45 49 51 53 54 54 54 53 53 55 55 55 56 56 55
29 27 29 30 32 32 32 32 32 32 31 30 28 29 31 33 33 33 32 33 32 33 35 37 39 40 43 41 42 41 43 44 51 53 53 54 54 55 56 56 56 50 51
30 32 30 28 28 27 29 26 27 30 30 30 28 27 28 32 32 31 31 31 31 32 33 35 37 38 40 38 38 38 38 39 42 47 53 54 53 54 55 57 55 54 55
28 27 29 27 26 26 27 26 26 26 26 26 29 29 30 29 31 30 30 30 31 31 32 33 35 36 36 36 34 35 35 35 37 40 44 49 54 53 53 55 57 57 57
27 26 26 25 26 25 26 26 24 25 25 25 26 26 29 26 29 30 30 30 31 31 33 33 33 34 34 34 33 33 33 33 33 35 37 43 52 54 55 53 53 57 56
28 26 25 25 25 26 25 25 24 24 24 25 25 26 25 25 25 27 29 30 30 29 30 31 32 32 32 32 31 30 30 31 32 34 34 39 50 54 54 55 54 56 55
28 27 26 25 25 24 24 24 23 24 24 24 24 25 26 25 24 25 26 28 29 29 29 30 30 29 30 31 30 29 29 30 32 33 35 41 49 52 56 56 56 56 55
28 28 27 24 24 23 22 22 23 23 24 23 24 24 25 25 24 25 25 25 27 28 28 28 28 28 28 29 28 29 29 30 30 30 34 43 46 48 49 57 57 56 56
29 29 28 26 24 23 25 23 22 22 23 23 24 24 25 25 24 24 24 24 24 24 26 27 27 27 27 28 28 28 29 29 29 30 35 41 43 45 45 54 57 56 55

GFSGL_sfc_dewp_114.txt.gz
Dewpoint
48 49 49 50 50 50 50 50 50 48 47 46 46 46 46 46 46 46 45 46 46 45 45 45 45 45 45 43 43 44 42 42 42 44 48 53 55 57 57 57 59 61 63
46 48 49 49 49 49 48 48 49 46 46 46 46 46 47 47 47 46 46 46 46 45 45 45 44 45 44 43 43 42 41 41 42 42 44 46 52 54 56 57 59 61 64
46 46 47 48 48 47 47 47 48 46 45 46 46 46 47 47 46 46 46 46 46 46 46 46 45 45 45 44 43 43 43 43 43 44 44 44 47 48 48 54 58 61 62
45 45 45 46 48 46 46 46 45 46 46 47 47 47 47 47 47 47 46 45 45 45 45 45 45 45 45 44 44 44 44 43 44 43 44 45 46 48 50 51 52 59 60
43 42 43 45 45 45 46 46 46 45 46 47 47 46 46 47 45 45 45 46 45 45 46 45 45 46 47 47 45 44 44 43 43 42 41 39 39 41 41 46 51 53 59
42 42 41 41 43 44 45 45 44 44 45 46 46 45 46 46 45 46 47 46 46 46 46 46 46 47 47 48 48 48 47 44 43 41 40 39 39 41 41 42 45 51 54
38 39 39 39 40 41 43 43 43 43 45 45 44 46 46 46 45 44 46 46 46 45 45 45 45 46 47 46 46 47 47 46 46 43 42 42 42 42 43 44 46 50 51
37 37 37 38 39 41 42 43 43 44 44 45 45 46 46 47 45 44 44 43 43 44 44 45 45 46 46 46 46 45 45 44 44 45 44 43 43 43 45 46 46 49 52
35 35 36 37 38 39 41 42 42 43 43 45 45 46 46 46 44 41 41 41 41 42 43 44 44 44 44 43 46 45 45 45 45 45 44 43 43 43 45 48 48 50 52
34 34 35 36 38 39 41 41 43 43 44 45 46 45 45 44 41 40 40 39 39 40 41 42 43 43 42 41 43 46 46 45 45 45 45 45 44 44 44 45 48 49 50
34 34 34 36 35 38 39 40 41 42 43 43 43 43 43 40 39 39 39 37 38 39 40 42 45 44 43 42 41 45 46 46 46 47 47 47 47 48 48 48 48 49 49
34 33 32 33 34 36 38 38 37 37 37 38 38 37 37 37 38 38 37 38 39 39 41 45 49 45 43 42 41 42 41 43 47 48 47 47 47 48 48 49 50 52 53
34 33 32 32 34 35 36 35 34 34 35 35 35 33 33 35 36 37 37 37 39 41 44 45 43 43 46 45 43 40 40 45 45 45 46 46 48 49 50 50 51 52 54
34 33 32 32 34 33 35 35 32 32 32 33 32 31 32 34 35 35 35 36 38 40 43 47 45 44 45 47 46 46 46 46 46 45 45 47 48 49 49 51 51 52 54
34 34 32 33 34 35 33 35 32 32 33 32 33 32 33 34 34 35 35 37 37 38 42 43 43 44 43 44 45 48 51 50 48 47 47 48 49 50 51 53 54 54 53
32 32 32 32 32 32 32 33 35 35 35 34 34 34 34 35 35 34 34 35 35 36 40 40 40 40 41 41 41 41 43 46 50 49 47 49 49 51 52 53 54 54 52
32 30 29 33 31 31 32 33 32 33 35 34 33 33 34 34 34 34 34 34 34 35 37 37 38 38 40 38 39 39 39 41 45 50 47 47 49 51 50 52 52 54 53
28 33 30 33 32 32 31 32 32 32 29 28 30 31 33 33 33 33 33 33 32 33 34 35 36 36 37 36 36 36 37 38 39 44 52 52 52 52 52 52 53 54 54
28 28 28 29 28 30 29 28 29 30 30 29 28 28 30 32 32 32 32 32 30 31 32 33 34 35 35 35 34 34 35 35 36 39 41 46 53 54 54 54 55 48 50
28 31 30 27 27 27 26 26 26 27 26 27 27 26 26 29 28 28 29 30 30 30 31 32 33 34 34 34 32 32 33 34 34 35 37 40 45 53 55 55 55 54 54
28 27 29 27 26 26 26 25 25 25 26 26 26 27 26 25 26 26 27 27 28 29 30 30 32 32 32 32 32 31 31 32 32 33 35 37 41 50 54 56 55 55 55
27 26 26 26 26 25 25 24 24 25 24 25 25 26 26 24 25 25 26 26 26 27 28 28 30 29 30 30 30 30 30 30 30 32 34 35 41 51 54 54 56 56 54
26 26 26 25 25 25 24 23 23 24 23 23 24 25 25 23 25 24 25 26 26 26 26 27 27 26 27 29 28 29 29 29 30 32 33 35 44 47 53 53 55 55 54
27 25 25 25 24 23 23 23 22 23 23 23 23 24 25 23 25 23 24 25 26 25 25 26 26 25 26 27 26 27 28 29 31 31 33 39 43 44 49 54 55 53 51
27 25 24 24 23 24 23 22 21 23 22 23 23 23 24 23 23 22 23 23 23 25 25 24 25 25 25 25 25 25 28 29 29 30 34 38 40 42 44 53 55 54 52
28 27 26 25 25 26 24 23 23 23 23 22 23 23 25 22 22 22 22 22 22 22 23 24 24 24 24 24 25 26 27 28 28 29 33 36 37 39 41 49 56 55 54